Wetbulb
59.82 61.32 61.73 60.89 61.06 62.19 61.98 62.02 61.02 59.63 58.91 58.27 57.74 57.65 57.56 57.33 56.74 56.80 56.45 56.47 56.42 56.68 57.01 57.77 58.22 58.20 55.58 48.62 48.68 58.01 58.27 57.99 57.79 58.15 55.81 53.95 51.41 49.18 47.00 50.77 52.21 50.46 52.52 53.79 54.19 54.10 53.80
59.31 60.13 61.33 61.01 61.05 61.64 61.93 61.06 61.08 60.92 59.66 58.92 58.27 57.69 57.65 57.53 57.06 56.98 56.50 56.21 56.37 56.71 56.82 56.92 57.87 58.07 52.00 42.86 55.34 56.70 57.42 56.73 56.03 55.49 54.79 54.73 52.55 52.45 48.55 48.93 49.27 52.40 52.98 53.25 53.92 53.60 53.41
59.63 59.22 60.17 60.66 60.71 61.07 61.47 61.20 60.64 60.42 60.15 59.76 58.75 58.10 58.08 57.81 57.19 57.15 57.18 56.78 56.10 56.54 56.71 56.91 57.25 55.73 49.27 46.27 55.20 55.99 56.97 55.68 55.82 54.14 51.43 55.35 54.96 52.21 50.81 47.08 52.26 51.58 47.25 51.59 52.24 52.78 52.29
59.77 59.49 59.29 60.24 60.47 60.74 60.96 61.02 60.85 60.15 59.38 59.86 58.84 58.39 58.05 58.17 57.79 57.55 57.39 56.87 56.40 56.66 56.73 56.70 56.63 53.61 45.36 55.32 56.14 54.39 54.49 53.09 54.39 54.12 53.37 54.19 55.12 52.31 50.25 50.96 49.14 47.63 47.33 41.72 50.05 52.31 52.37
60.05 59.50 59.28 59.94 59.80 60.50 60.71 60.80 60.69 60.32 59.47 59.26 59.02 58.60 57.80 58.03 58.27 58.28 57.72 56.28 56.26 56.57 56.95 56.17 52.54 50.37 43.07 55.99 50.91 53.52 54.13 50.42 51.98 52.48 53.04 53.46 51.79 48.63 49.00 43.77 42.15 44.59 39.58 41.71 45.21 51.87 50.73
60.18 59.81 59.68 59.84 60.15 60.09 60.42 60.41 60.63 60.53 60.25 59.78 59.52 58.86 58.05 57.72 57.90 57.79 57.35 55.40 54.75 54.71 55.16 54.66 52.16 44.75 47.77 45.80 50.82 52.08 53.72 52.84 49.31 49.14 47.96 47.89 46.27 43.03 44.01 41.27 33.76 37.73 40.36 42.06 42.75 48.19 49.81
58.14 59.17 59.75 59.65 59.81 60.04 59.87 60.00 60.04 60.31 60.20 59.55 59.14 58.77 57.76 57.60 57.30 57.18 55.04 52.40 47.73 46.05 49.04 43.33 44.70 44.15 47.04 50.82 52.68 50.04 52.01 49.93 48.71 46.01 39.59 44.30 39.55 36.73 39.69 41.55 42.42 42.90 42.12 42.59 45.21 49.92 47.67
56.86 57.27 59.52 59.36 59.47 59.67 59.72 59.55 59.66 59.76 59.64 59.43 58.78 58.21 57.50 57.30 57.04 56.65 54.71 47.12 47.78 48.43 41.87 47.58 47.21 46.94 49.62 50.57 44.63 47.72 51.74 44.51 43.13 38.24 41.18 39.72 35.64 40.75 43.16 43.04 41.81 41.55 40.91 41.75 46.23 49.25 47.85
54.16 55.89 58.08 58.71 58.71 59.26 59.49 59.23 59.50 59.39 59.35 59.02 58.31 57.65 57.09 56.62 56.21 54.45 50.93 49.33 53.48 51.30 41.41 43.43 46.08 45.18 46.75 48.30 43.71 45.22 48.30 45.24 40.96 38.02 38.07 35.77 38.49 42.64 41.38 40.35 39.68 39.76 39.94 41.68 42.64 47.14 47.43
53.27 53.52 54.52 55.50 56.32 57.92 58.29 58.56 58.58 58.85 58.50 58.24 57.79 57.33 56.60 55.88 50.99 51.69 49.63 54.03 53.79 51.70 34.63 36.53 40.42 44.39 46.30 45.72 40.47 48.68 49.85 45.88 41.45 36.94 38.51 37.94 41.73 39.81 39.50 38.14 40.37 36.31 44.12 44.14 44.25 43.12 38.45
52.07 53.28 52.60 53.76 53.55 54.80 57.46 57.75 58.10 58.20 57.91 57.71 57.32 57.15 56.42 55.06 52.53 49.03 51.09 52.60 51.78 48.08 24.65 38.52 40.42 48.41 46.31 41.51 42.47 42.77 49.09 45.63 38.98 38.37 39.00 35.17 37.70 37.49 36.78 38.91 41.57 38.69 45.14 43.10 44.89 43.12 40.35
51.52 52.18 52.00 52.90 52.79 53.04 54.68 57.24 57.54 57.79 57.65 57.37 57.11 56.69 56.18 53.89 52.52 52.26 52.72 51.53 48.39 32.84 24.02 35.76 39.98 39.46 39.62 40.55 41.02 43.47 43.17 46.84 45.19 39.79 39.69 37.92 42.94 40.96 39.38 41.40 41.78 44.10 41.35 42.69 44.58 42.68 36.19
50.74 51.32 51.86 52.42 51.75 51.57 52.48 56.65 57.00 57.40 57.46 57.21 57.24 56.50 54.90 53.93 48.26 52.97 51.46 46.50 32.17 27.71 37.93 35.13 35.87 38.44 37.40 37.28 38.01 38.72 38.07 36.95 34.48 30.72 30.81 36.26 36.66 40.21 40.69 39.39 41.31 42.11 39.60 34.75 33.08 34.28 33.43
50.43 51.12 51.41 51.74 50.67 51.01 53.43 55.58 56.96 57.46 57.30 56.86 56.90 56.61 54.58 52.38 52.82 51.69 48.62 38.04 27.20 34.66 34.36 38.71 37.75 37.28 35.29 37.43 37.67 37.31 36.47 33.55 38.02 36.05 32.41 29.52 27.33 37.00 39.21 38.84 38.16 39.76 39.11 32.95 29.02 31.16 32.91
49.65 50.66 50.98 51.53 50.32 50.68 53.06 56.06 56.85 56.77 56.61 56.48 56.35 54.86 51.85 51.57 52.59 50.77 42.73 29.99 31.52 35.92 38.86 36.56 36.90 33.98 33.28 36.85 37.28 36.17 35.42 34.71 36.91 37.85 31.48 32.03 30.94 39.87 42.27 41.21 43.14 38.32 33.63 40.39 37.55 39.07 34.50
49.49 50.01 50.76 51.12 51.50 50.68 52.01 54.73 56.72 56.63 56.42 56.24 51.08 50.01 49.28 53.26 52.29 47.91 38.71 33.40 35.74 40.79 39.82 38.69 34.10 35.07 30.74 33.21 32.88 33.62 34.00 38.34 37.53 40.47 40.27 34.83 31.53 39.68 41.05 44.16 44.80 42.39 45.10 37.20 37.87 31.40 28.36
48.95 49.83 49.81 50.59 51.15 50.29 51.96 52.43 56.42 56.98 56.63 54.55 48.58 44.52 50.00 53.24 50.99 42.98 33.35 34.39 37.46 41.69 41.09 37.38 36.04 35.09 35.34 33.67 34.10 33.45 34.09 38.34 40.90 40.34 39.32 36.76 33.76 35.59 38.34 40.90 39.03 40.43 40.51 41.57 41.30 38.84 32.24
48.44 49.04 49.62 50.53 50.67 51.09 51.86 52.16 54.39 56.64 56.22 52.76 47.38 40.42 50.98 52.44 40.27 40.14 35.83 38.11 40.87 40.50 42.45 40.72 39.87 38.16 36.60 37.58 34.45 34.44 34.06 38.29 43.57 41.49 36.03 37.74 36.03 32.94 35.14 40.89 45.74 44.67 41.90 42.57 37.13 34.63 35.72
47.70 48.48 49.26 50.09 50.87 51.24 51.48 52.68 54.94 56.60 54.68 49.76 44.24 45.23 51.30 48.94 35.28 36.05 38.64 39.08 39.52 38.96 41.47 40.27 39.12 40.85 40.72 37.82 33.58 36.49 38.49 44.11 43.16 40.97 38.13 38.30 34.93 31.83 32.86 39.42 43.72 42.07 43.42 43.65 41.96 40.38 35.24
46.86 47.94 48.60 49.80 50.38 50.49 50.68 51.27 55.92 56.34 54.98 50.44 44.84 40.42 44.50 45.12 43.97 39.76 37.20 38.02 36.96 41.81 40.53 42.36 41.28 41.35 39.40 37.33 39.14 37.36 38.15 43.45 44.08 42.66 45.35 46.03 40.15 34.14 33.25 36.73 40.42 39.47 41.68 42.98 40.94 35.37 35.71
46.44 47.41 48.10 49.28 49.45 50.05 51.11 51.55 54.43 55.84 54.24 50.35 44.67 42.08 43.07 36.84 38.43 40.12 40.97 39.52 37.94 36.69 42.85 43.14 39.99 39.58 38.52 35.52 37.40 36.84 39.69 42.08 44.34 44.55 43.49 40.47 38.23 39.75 41.42 42.68 42.65 41.89 41.36 41.83 40.53 40.84 35.17
45.89 46.90 47.87 48.92 49.23 49.04 49.80 49.77 51.06 55.40 53.78 48.15 42.50 40.99 44.31 43.44 41.43 40.00 39.67 38.76 38.77 38.55 41.20 40.35 38.72 42.87 41.97 37.79 38.33 36.22 39.46 39.90 39.71 42.93 40.96 42.50 37.57 40.35 38.31 41.38 42.04 40.54 42.46 42.47 42.19 41.66 40.82
45.51 46.17 47.60 48.61 49.04 48.98 49.27 49.85 50.59 54.95 52.80 47.40 48.02 47.68 43.97 43.70 43.23 40.32 40.66 40.54 40.99 42.11 41.68 43.31 42.95 40.57 42.02 42.08 44.83 44.20 44.05 44.55 45.20 42.97 41.35 39.98 39.47 37.57 32.13 38.42 38.84 34.31 39.66 41.81 42.10 43.11 43.08
45.33 45.92 47.22 48.24 48.60 48.09 48.81 49.79 50.68 54.68 53.65 49.53 47.49 46.64 42.76 37.95 39.91 41.45 43.41 43.64 42.52 43.01 40.68 44.23 45.89 42.37 46.82 49.70 49.50 48.57 46.08 43.28 42.33 43.47 45.02 39.61 39.24 38.89 32.83 34.03 26.34 36.92 40.65 42.93 42.45 43.59 44.07
45.19 45.77 46.86 47.82 48.34 47.86 47.99 49.45 50.25 53.53 54.25 48.81 47.38 46.63 44.09 39.40 41.76 41.20 41.79 42.87 42.03 42.03 42.97 43.12 45.66 45.38 47.90 45.73 42.86 39.91 39.26 40.31 38.83 39.22 40.57 44.26 41.48 36.85 33.21 31.88 37.09 39.26 38.77 38.86 39.44 40.08 44.42
45.02 45.55 46.61 47.43 47.88 47.95 47.88 48.83 50.28 53.09 54.46 51.29 47.74 48.98 45.44 40.47 39.68 42.89 40.49 44.30 41.05 38.74 38.53 39.92 42.40 44.21 45.12 41.92 41.49 34.78 33.29 36.55 34.98 36.94 41.26 44.09 42.90 39.51 32.77 29.53 27.48 35.69 40.03 43.13 43.16 34.47 41.97
44.71 45.39 46.21 47.22 47.62 47.93 47.85 49.01 50.01 51.92 54.10 51.44 48.80 50.02 46.87 41.92 44.40 42.65 39.66 40.57 44.85 40.72 38.64 38.88 39.59 41.12 44.95 41.04 38.39 35.30 37.11 39.75 35.12 34.80 35.47 37.92 38.69 36.27 35.38 32.91 35.62 40.79 41.29 42.70 33.22 35.44 41.63
44.43 45.07 46.00 46.95 47.32 47.70 48.04 49.11 49.69 52.27 53.54 51.66 48.49 49.61 47.56 43.82 44.70 45.59 45.39 40.88 42.81 42.11 38.53 40.07 40.44 42.25 42.41 38.90 39.39 38.76 36.85 39.38 37.64 38.44 38.11 37.08 35.89 35.37 36.00 33.84 31.40 43.12 40.93 36.94 40.51 41.18 42.44
44.44 44.90 45.60 46.58 46.94 47.58 47.92 49.23 49.80 50.59 53.25 52.49 47.41 48.91 49.96 45.75 45.88 47.95 47.80 47.65 46.17 45.27 42.56 41.53 42.22 43.53 45.32 41.93 41.38 39.06 36.54 37.11 37.90 35.08 41.67 36.62 39.43 38.02 38.41 37.45 42.10 41.85 41.17 42.80 44.32 42.37 42.57
MSLP
1014.47 1014.12 1013.90 1013.83 1013.82 1013.62 1013.51 1013.52 1013.58 1013.72 1014.14 1014.21 1014.33 1014.31 1014.28 1014.31 1014.56 1014.65 1014.59 1014.62 1014.52 1014.69 1014.76 1014.72 1014.59 1014.57 1014.47 1013.84 1012.34 1012.37 1012.43 1012.33 1012.39 1012.63 1012.84 1012.76 1012.44 1012.19 1011.54 1010.46 1010.20 1009.23 1008.86 1008.42 1007.85 1007.53 1007.09
1014.07 1013.80 1013.57 1013.36 1013.29 1013.31 1013.10 1013.03 1013.15 1013.21 1013.47 1013.74 1013.99 1014.04 1014.11 1014.12 1014.34 1014.49 1014.52 1014.49 1014.55 1014.74 1014.68 1014.72 1014.62 1014.61 1014.31 1012.95 1011.55 1011.88 1012.17 1012.18 1012.14 1012.05 1012.49 1012.70 1012.21 1011.83 1011.41 1010.93 1010.26 1009.50 1009.15 1008.50 1007.79 1007.22 1007.06
1013.57 1013.29 1013.08 1012.91 1012.81 1012.76 1012.66 1012.65 1012.60 1012.75 1012.86 1013.20 1013.47 1013.67 1013.93 1013.97 1014.10 1014.19 1014.21 1014.21 1014.38 1014.62 1014.66 1014.62 1014.55 1014.48 1013.71 1012.10 1011.09 1011.31 1011.51 1011.87 1012.12 1012.14 1012.05 1012.27 1012.37 1012.26 1011.49 1011.40 1010.48 1009.74 1009.62 1008.57 1007.69 1007.02 1006.70
1012.94 1012.73 1012.50 1012.38 1012.22 1012.21 1012.18 1012.11 1012.14 1012.23 1012.42 1012.61 1012.88 1013.31 1013.54 1013.78 1013.74 1013.93 1013.94 1013.94 1014.13 1014.40 1014.65 1014.58 1014.49 1014.17 1012.77 1011.64 1011.67 1011.59 1011.75 1011.86 1011.94 1012.11 1012.22 1012.06 1012.13 1012.26 1012.15 1011.92 1011.43 1010.48 1009.77 1008.78 1006.96 1006.76 1006.48
1012.14 1012.01 1011.87 1011.74 1011.61 1011.63 1011.59 1011.59 1011.64 1011.76 1011.88 1012.17 1012.38 1012.71 1013.12 1013.42 1013.47 1013.59 1013.79 1013.89 1013.97 1014.07 1014.47 1014.45 1014.44 1013.89 1012.18 1010.93 1011.26 1011.17 1011.63 1011.77 1011.72 1011.80 1012.01 1012.30 1012.45 1012.61 1012.63 1012.59 1012.39 1010.65 1009.04 1007.92 1007.60 1006.70 1006.31
1011.66 1011.30 1011.22 1011.14 1011.05 1010.99 1010.95 1010.99 1011.07 1011.22 1011.40 1011.57 1011.87 1012.15 1012.63 1013.04 1013.29 1013.32 1013.62 1013.84 1013.85 1013.88 1014.07 1014.11 1013.77 1013.91 1011.78 1010.52 1010.65 1010.97 1011.26 1011.51 1011.73 1011.80 1012.08 1012.41 1012.65 1012.68 1012.49 1012.25 1010.48 1009.66 1009.32 1007.62 1007.00 1006.45 1006.01
1011.57 1011.00 1010.41 1010.39 1010.42 1010.41 1010.33 1010.40 1010.48 1010.66 1010.80 1011.09 1011.35 1011.58 1012.17 1012.76 1013.05 1013.19 1013.72 1014.01 1014.16 1014.06 1013.80 1012.93 1012.28 1011.19 1010.26 1010.02 1010.52 1010.58 1010.84 1011.32 1011.92 1012.16 1012.21 1012.28 1012.60 1011.10 1010.81 1010.95 1010.59 1010.21 1009.33 1008.28 1006.83 1006.13 1005.81
1011.25 1010.62 1009.64 1009.68 1009.63 1009.70 1009.66 1009.72 1009.90 1010.08 1010.28 1010.51 1010.93 1011.21 1011.81 1012.35 1012.75 1012.98 1013.36 1013.47 1013.07 1013.40 1012.95 1012.45 1011.92 1011.46 1010.35 1010.70 1010.41 1010.45 1010.64 1011.29 1011.66 1011.74 1012.26 1012.51 1011.15 1010.02 1011.47 1011.52 1011.38 1010.48 1009.67 1008.32 1007.01 1005.93 1005.59
1011.28 1010.46 1009.51 1009.27 1008.93 1008.85 1008.91 1009.00 1009.18 1009.45 1009.69 1010.00 1010.47 1010.87 1011.56 1011.99 1012.47 1012.87 1012.94 1012.84 1012.94 1013.22 1013.16 1011.55 1011.22 1010.71 1010.48 1010.64 1010.26 1009.86 1010.44 1010.66 1010.85 1011.31 1011.48 1011.43 1009.22 1011.47 1011.27 1011.12 1010.99 1010.11 1009.37 1008.55 1007.57 1006.12 1005.36
1011.09 1010.45 1009.84 1009.23 1008.58 1008.22 1008.11 1008.25 1008.49 1008.80 1009.11 1009.48 1010.01 1010.54 1011.22 1011.83 1012.67 1012.10 1012.32 1012.27 1012.70 1013.40 1012.88 1011.32 1010.84 1009.92 1010.12 1010.90 1010.56 1009.95 1009.64 1010.18 1010.45 1010.34 1011.27 1011.27 1010.59 1010.71 1010.67 1010.39 1010.39 1009.54 1008.85 1008.79 1007.86 1007.44 1005.80
1011.04 1010.09 1009.48 1008.82 1008.52 1008.18 1007.64 1007.53 1007.74 1008.04 1008.43 1008.98 1009.57 1010.09 1010.74 1011.06 1010.93 1011.69 1012.52 1012.77 1013.19 1013.74 1012.64 1010.52 1010.37 1010.21 1009.82 1010.47 1010.21 1009.86 1009.74 1010.09 1009.73 1009.97 1010.59 1009.89 1010.00 1010.09 1010.20 1010.01 1010.07 1008.79 1009.31 1008.72 1007.84 1006.85 1006.12
1010.62 1009.87 1009.20 1008.65 1008.09 1007.96 1007.50 1006.85 1006.92 1007.24 1007.66 1008.31 1008.98 1009.46 1010.29 1011.05 1011.22 1011.79 1012.32 1012.92 1013.33 1013.96 1011.26 1009.95 1010.24 1010.29 1010.34 1010.39 1010.23 1009.78 1009.42 1009.96 1009.59 1009.85 1009.89 1010.18 1010.13 1009.88 1009.30 1009.52 1010.01 1009.68 1009.70 1008.87 1007.65 1006.63 1005.74
1010.39 1009.44 1008.55 1007.77 1007.59 1007.63 1007.12 1006.19 1006.12 1006.43 1006.88 1007.51 1008.25 1008.84 1009.66 1009.91 1010.37 1011.50 1012.20 1012.94 1013.56 1012.17 1009.84 1009.88 1009.94 1010.00 1010.11 1010.00 1010.05 1009.92 1009.30 1009.18 1009.03 1009.67 1010.01 1010.49 1010.10 1009.91 1010.24 1009.66 1009.43 1009.30 1009.65 1008.17 1006.35 1005.32 1003.84
1009.92 1008.94 1008.14 1007.32 1006.98 1006.75 1006.25 1005.59 1005.40 1005.57 1006.22 1006.82 1007.52 1008.21 1008.90 1009.73 1010.21 1010.91 1011.78 1012.87 1012.07 1009.30 1009.22 1009.45 1009.61 1009.80 1009.62 1009.58 1009.45 1009.40 1008.94 1008.76 1009.10 1009.55 1009.81 1009.72 1009.32 1008.93 1009.27 1008.84 1007.85 1008.12 1008.59 1006.80 1005.57 1004.33 1002.67
1009.59 1008.52 1007.58 1006.80 1006.42 1006.30 1005.65 1004.83 1004.79 1005.03 1005.62 1006.26 1007.07 1007.55 1008.47 1009.66 1010.02 1010.62 1011.30 1011.47 1009.72 1008.70 1008.90 1009.09 1009.21 1008.96 1008.84 1008.76 1008.92 1008.75 1008.40 1008.15 1008.01 1008.80 1009.62 1009.31 1008.43 1007.59 1006.71 1007.42 1007.45 1007.41 1007.03 1005.76 1004.66 1002.26 1002.25
1009.34 1008.26 1007.21 1006.36 1005.77 1005.88 1005.59 1004.48 1004.22 1004.53 1005.15 1005.85 1006.75 1007.19 1007.92 1008.65 1009.83 1010.57 1010.73 1009.70 1008.81 1008.44 1008.62 1008.64 1008.08 1007.63 1007.07 1007.55 1008.04 1007.70 1007.19 1006.28 1006.82 1007.48 1008.63 1009.49 1008.60 1007.18 1006.97 1006.83 1006.79 1006.43 1006.13 1005.16 1003.71 1001.83 1001.54
1008.90 1007.81 1006.97 1006.11 1004.86 1004.96 1004.93 1004.42 1003.80 1003.90 1004.68 1005.49 1006.52 1007.06 1007.15 1008.10 1009.49 1010.10 1009.26 1008.67 1008.23 1008.12 1008.33 1008.19 1007.03 1005.72 1005.31 1005.61 1006.00 1005.74 1005.26 1004.95 1005.01 1005.98 1007.90 1009.08 1009.81 1007.50 1006.46 1005.20 1005.29 1005.80 1004.90 1003.44 1001.80 1000.83 999.93
1008.52 1007.72 1006.72 1005.44 1004.34 1004.36 1004.42 1003.90 1003.43 1003.34 1004.29 1005.30 1005.92 1006.59 1006.95 1007.77 1008.72 1008.68 1008.28 1007.94 1008.19 1007.53 1007.45 1007.07 1006.35 1004.88 1003.73 1003.92 1004.31 1004.44 1004.16 1004.10 1003.73 1005.24 1007.26 1008.48 1008.63 1006.71 1005.56 1004.24 1004.02 1004.28 1003.04 1001.61 1000.62 1000.23 999.78
1008.24 1007.47 1006.73 1005.30 1004.17 1004.02 1003.50 1003.22 1002.31 1002.78 1003.71 1004.65 1005.27 1006.06 1006.81 1006.97 1007.43 1007.55 1007.59 1007.40 1007.51 1007.18 1006.34 1005.95 1004.56 1002.95 1002.32 1002.39 1003.01 1003.06 1003.14 1002.68 1003.64 1005.07 1005.49 1007.26 1007.15 1005.98 1005.10 1004.61 1003.63 1002.98 1001.98 1000.98 1000.40 1000.33 1000.02
1008.17 1007.33 1006.53 1005.24 1004.37 1003.95 1003.76 1002.95 1001.27 1002.19 1002.93 1003.77 1004.78 1005.36 1006.38 1006.82 1006.37 1006.52 1006.66 1006.52 1006.50 1006.11 1005.65 1004.98 1003.21 1002.11 1001.91 1001.64 1001.78 1002.20 1002.04 1002.20 1002.66 1003.47 1004.34 1005.06 1004.79 1004.53 1002.78 1001.34 1001.29 1001.97 1001.39 1000.85 1000.78 1000.43 1000.02
1008.08 1006.97 1006.24 1005.15 1004.60 1003.77 1003.00 1002.59 1000.95 1001.80 1002.56 1003.40 1004.03 1004.03 1004.46 1005.33 1005.71 1005.60 1005.67 1005.49 1005.17 1005.20 1004.42 1003.82 1002.47 1001.37 1001.40 1001.29 1001.15 1001.28 1001.95 1001.42 1001.73 1002.57 1004.20 1005.39 1003.02 1002.42 1001.02 1000.10 1000.39 1000.49 1000.64 1000.64 1000.39 1000.42 1000.36
1007.70 1006.78 1005.94 1004.81 1004.03 1003.87 1002.94 1001.93 1001.74 1001.57 1002.49 1003.18 1003.27 1003.50 1003.73 1003.54 1003.95 1004.67 1004.75 1004.21 1004.22 1004.37 1004.06 1002.87 1002.28 1000.85 1000.72 1000.67 1000.40 1000.58 1000.87 1001.41 1001.58 1002.22 1003.15 1003.60 1002.45 1000.92 1000.34 1000.00 1000.02 1000.35 1000.42 1000.31 1000.07 1000.28 1000.16
1007.51 1006.75 1006.07 1005.23 1004.49 1003.63 1003.27 1002.65 1001.91 1001.42 1002.14 1002.51 1002.88 1002.84 1002.82 1002.24 1002.68 1003.20 1002.75 1002.83 1002.85 1003.32 1003.31 1002.58 1002.05 1001.49 1000.21 999.58 999.70 999.60 999.91 1000.68 1000.76 1001.37 1002.18 1002.88 1002.50 1001.20 1000.80 1000.04 999.87 999.92 999.40 999.64 999.95 1000.01 999.96
1007.60 1006.77 1005.91 1005.11 1004.20 1003.88 1003.40 1002.77 1001.98 1001.45 1001.70 1001.92 1002.43 1002.81 1003.01 1002.52 1001.77 1001.32 1000.97 1001.18 1001.83 1002.26 1002.25 1001.89 1001.76 1001.33 1000.46 999.12 999.09 999.98 1000.49 1001.10 1001.38 1001.42 1001.54 1002.07 1002.20 1001.77 1001.26 1000.46 1000.15 999.38 998.81 998.67 999.08 999.36 999.67
1007.45 1006.67 1006.05 1005.13 1003.97 1003.36 1002.78 1002.20 1002.01 1000.94 1001.47 1001.93 1002.27 1002.69 1002.77 1002.10 1001.36 1000.78 1000.34 1000.63 1001.42 1001.91 1001.90 1001.96 1001.69 1001.60 1000.93 1000.28 1000.36 1000.96 1001.81 1001.98 1002.33 1002.35 1002.05 1001.93 1002.37 1002.50 1002.26 1001.66 1000.42 999.12 999.05 998.90 998.78 999.00 999.24
1007.02 1006.41 1005.59 1004.63 1003.68 1003.39 1002.89 1002.42 1001.67 1000.92 1001.22 1001.86 1002.31 1002.52 1002.82 1002.38 1001.13 1000.80 1000.51 1000.46 1001.44 1001.95 1002.20 1002.16 1002.45 1002.19 1001.80 1001.68 1001.22 1001.38 1001.72 1002.40 1002.88 1002.91 1002.51 1002.43 1002.74 1003.44 1003.15 1002.43 1001.22 1000.08 999.48 998.95 998.69 999.67 999.76
1006.76 1006.05 1005.39 1004.88 1004.17 1003.36 1002.55 1002.10 1001.41 1000.66 1000.90 1001.63 1002.09 1002.37 1002.68 1002.49 1001.27 1000.82 1000.80 1000.99 1001.25 1001.91 1002.04 1002.22 1002.43 1002.60 1002.42 1002.21 1001.36 1001.12 1001.31 1001.79 1002.32 1002.66 1003.00 1003.06 1003.55 1003.89 1003.78 1003.14 1001.61 1000.36 999.98 999.58 1000.06 1001.05 1000.34
1006.51 1005.79 1005.23 1004.44 1003.68 1003.40 1002.83 1002.08 1001.66 1000.71 1000.83 1001.42 1001.92 1002.21 1002.38 1002.28 1001.28 1000.98 1000.91 1001.24 1001.62 1001.73 1001.92 1002.05 1002.36 1001.92 1002.24 1001.85 1001.54 1001.04 1000.64 1000.87 1001.39 1002.05 1002.26 1002.74 1003.29 1003.55 1003.73 1003.40 1002.31 1000.52 1000.65 1000.87 1001.12 1000.99 1001.02
1006.20 1005.66 1005.16 1004.51 1003.68 1002.81 1002.30 1001.68 1001.06 1000.69 1000.68 1001.34 1001.84 1002.12 1002.33 1002.56 1001.67 1001.23 1000.95 1001.15 1001.37 1001.68 1001.82 1001.72 1001.30 1000.65 1000.81 1001.30 1001.53 1000.82 1000.29 1000.10 1000.25 1001.47 1001.83 1002.14 1001.88 1002.14 1002.38 1001.95 1001.19 1000.91 1001.08 1001.17 1001.34 1001.78 1002.19
Wind_Speed
20 18 16 14 16 14 12 12 13 13 13 12 12 11 9 8 8 8 6 6 6 7 7 6 5 2 4 8 14 8 4 4 9 11 15 15 14 12 13 9 15 21 17 20 16 16 16
19 19 18 15 14 16 13 10 10 13 15 14 13 12 10 8 7 8 7 6 6 8 7 7 5 4 6 14 9 14 8 6 5 3 13 14 12 12 15 16 16 9 19 18 19 18 13
20 19 20 17 15 15 14 13 11 10 13 16 13 12 10 10 9 9 8 6 6 8 8 7 6 7 11 14 3 7 14 14 10 10 7 15 15 14 7 15 13 15 16 15 22 19 14
21 20 20 20 17 16 15 14 12 12 12 14 13 12 10 11 10 10 9 5 4 6 8 6 7 9 8 10 15 10 7 7 11 11 11 11 6 11 14 7 11 9 11 13 18 13 18
21 20 20 19 18 17 16 13 14 13 13 14 14 12 11 12 10 9 8 5 5 7 8 5 6 9 8 3 15 13 13 12 10 9 7 11 9 6 11 7 6 10 12 22 15 18 15
25 20 19 19 18 18 16 13 13 14 15 14 13 12 11 10 8 7 7 1 3 5 3 6 8 3 8 11 9 14 15 16 12 8 8 9 6 7 8 11 18 12 16 14 18 17 18
28 28 20 19 19 18 16 15 14 12 13 13 11 11 9 9 7 7 6 1 1 2 6 10 8 10 2 8 0 7 12 11 12 12 12 11 10 19 23 22 18 15 17 16 17 17 21
27 26 23 21 20 18 17 15 13 12 12 12 10 10 9 8 7 5 7 4 3 4 7 17 17 19 18 6 8 11 11 13 15 17 14 11 22 25 14 17 18 21 18 17 15 20 20
28 28 28 23 22 19 17 16 14 14 12 12 10 11 9 7 4 4 9 10 2 6 7 6 20 16 14 11 14 12 16 17 15 17 17 19 20 16 18 19 20 22 23 16 15 14 9
29 26 28 25 24 21 19 17 16 15 14 12 12 12 11 12 3 7 11 4 5 6 6 6 7 6 13 6 7 14 13 17 12 19 17 16 18 20 20 23 20 23 23 21 19 18 12
29 26 26 25 25 30 23 18 17 17 14 13 13 14 15 16 6 5 5 8 8 3 7 8 6 4 5 11 4 10 17 15 18 15 10 11 11 18 22 21 20 20 17 23 27 11 3
29 28 26 22 20 27 30 20 16 17 14 15 16 16 16 9 2 7 11 9 3 2 9 5 5 7 7 9 6 7 19 19 13 16 13 14 9 13 17 21 20 21 15 20 18 11 9
30 30 26 24 16 24 29 22 17 15 15 15 17 18 16 8 5 14 12 3 2 7 2 5 4 6 13 9 10 6 16 20 11 6 13 7 19 8 4 12 20 22 14 8 8 7 5
31 30 26 23 13 23 25 21 17 15 14 15 14 17 13 3 13 16 6 3 8 7 6 3 3 8 8 7 7 12 7 17 18 10 2 10 8 15 15 11 15 25 23 4 6 6 7
33 31 27 21 12 23 27 19 17 16 13 12 13 5 8 8 13 8 5 5 6 3 4 6 5 7 6 7 7 13 14 12 14 19 8 3 10 5 10 15 16 11 10 16 7 10 7
30 32 28 24 16 17 26 25 14 13 13 15 4 4 5 16 13 8 4 8 7 4 5 5 9 13 10 10 9 12 13 10 19 18 15 3 7 6 12 8 9 7 8 11 4 7 8
31 33 28 34 12 11 20 21 14 16 16 17 4 4 8 17 7 4 6 7 7 10 8 7 9 11 13 11 14 13 9 12 13 12 13 5 3 1 1 9 13 9 7 10 5 5 6
31 32 30 34 11 9 17 21 24 17 20 12 4 3 10 12 6 3 5 5 3 6 16 12 11 16 11 11 14 11 12 6 15 15 10 9 5 5 6 4 12 9 8 11 3 2 1
32 31 34 29 19 14 20 20 20 20 21 6 6 3 7 7 6 6 6 6 8 4 6 9 10 14 7 7 8 14 13 7 20 14 13 14 6 2 5 8 1 4 7 5 5 3 3
31 30 34 27 24 16 21 26 11 23 21 5 4 5 3 3 2 6 10 7 7 14 18 15 13 16 9 10 11 6 9 7 14 15 13 7 6 6 6 6 12 7 7 6 5 1 2
29 30 33 30 24 25 26 20 10 23 20 5 3 4 6 6 8 11 5 5 8 6 12 15 8 17 10 8 9 7 12 6 8 9 11 5 5 14 11 18 17 14 9 8 9 7 1
29 30 32 32 23 25 26 28 32 22 18 3 5 3 4 3 8 16 15 9 13 7 5 9 14 9 15 9 8 12 12 11 9 8 15 12 7 13 10 6 12 14 13 12 10 7 7
29 29 30 31 24 25 25 22 26 20 10 3 2 2 1 4 9 8 7 10 11 12 12 18 13 15 12 12 7 13 10 12 7 10 11 6 4 5 4 4 5 4 9 14 10 8 8
26 28 29 30 25 24 24 23 26 18 14 3 2 2 3 4 6 8 11 8 15 13 11 9 13 17 3 5 2 12 9 9 8 1 7 7 3 3 3 2 1 2 1 5 11 8 10
25 25 27 29 28 22 23 24 25 11 19 2 2 3 2 2 6 12 13 4 3 1 6 7 2 2 6 6 3 3 3 5 5 4 7 10 2 1 1 3 6 1 1 1 7 9 8
25 25 27 29 27 21 22 23 26 11 19 3 2 3 1 2 2 6 8 4 2 2 0 4 1 4 6 2 2 4 4 3 3 3 5 6 7 3 4 1 3 2 2 6 3 3 6
24 24 27 27 24 22 23 23 25 17 16 4 2 4 2 2 5 4 4 3 4 2 1 3 4 2 3 3 6 4 4 7 6 7 5 5 3 5 4 2 7 2 3 5 5 4 6
24 24 26 28 25 21 22 21 22 11 13 6 2 5 4 3 3 1 2 1 1 2 3 4 4 4 3 3 1 3 4 6 5 8 7 6 5 4 3 2 7 6 4 2 2 2 4
23 24 25 26 24 22 22 21 18 20 14 11 2 2 3 2 2 1 3 3 4 2 1 2 3 5 4 3 2 3 1 3 5 4 6 8 7 6 8 6 1 3 3 1 3 4 5
Wind_Direction
297 297 289 287 292 286 263 254 227 235 250 255 256 259 263 263 274 284 289 295 303 304 304 302 279 228 183 212 239 138 133 208 203 207 224 233 240 242 241 245 239 242 244 247 237 252 268
291 291 291 280 283 286 267 259 241 234 241 249 256 258 259 260 256 265 266 281 288 293 294 292 284 230 250 238 244 239 191 231 288 267 203 244 250 245 270 248 258 264 244 262 266 250 234
283 284 287 281 278 278 266 251 243 240 244 239 249 255 255 250 248 252 257 251 279 288 283 281 277 219 242 231 261 270 202 246 261 274 279 204 247 280 272 262 299 257 267 247 244 244 245
280 277 278 280 276 279 271 248 237 235 244 232 239 250 250 256 245 254 253 250 270 289 282 277 256 233 249 245 250 252 274 251 258 254 259 282 286 251 274 335 312 280 232 250 238 249 237
274 273 273 274 275 275 266 251 239 235 234 235 233 236 244 251 253 239 226 239 272 293 298 242 231 230 261 178 227 228 218 222 222 230 228 239 260 258 262 246 271 240 234 224 243 235 229
312 271 267 268 269 270 261 252 246 232 231 227 231 229 227 245 258 234 200 146 305 311 273 232 268 283 247 235 223 219 228 223 240 249 237 218 221 225 213 205 220 222 226 238 219 226 238
325 324 262 264 265 269 257 251 246 238 236 227 231 216 209 230 230 229 140 246 256 208 195 199 196 218 107 263 47 193 210 204 222 237 228 206 211 219 211 213 229 250 251 239 239 210 234
332 327 270 261 258 260 257 247 242 235 229 210 217 195 197 213 226 209 195 204 237 100 274 218 250 228 249 333 233 214 195 196 201 216 214 219 227 226 226 236 239 240 251 268 243 247 220
326 327 329 283 262 254 252 246 233 232 224 208 198 184 182 190 187 197 213 223 94 77 265 194 219 227 229 216 233 216 198 200 201 212 208 216 236 232 238 234 236 239 238 244 255 230 269
324 324 315 313 332 266 250 243 232 226 223 204 190 177 167 135 150 215 215 235 156 104 268 202 212 238 218 144 250 243 208 203 223 223 215 235 239 239 228 233 230 234 238 233 250 254 197
324 318 316 311 325 328 267 240 232 226 215 192 188 177 167 176 121 176 113 108 103 102 281 117 162 159 202 186 84 217 212 230 224 214 193 219 214 223 230 235 239 239 243 220 240 237 169
323 317 318 300 311 324 312 242 227 227 208 195 185 179 171 196 265 109 125 121 88 126 252 161 129 183 180 197 205 292 188 209 222 238 224 247 261 230 224 229 234 250 257 275 241 210 222
328 322 310 308 303 317 306 265 229 225 210 196 186 179 177 164 188 135 133 100 121 231 79 182 181 187 214 201 212 194 199 205 204 191 229 228 243 239 321 252 223 228 210 226 218 192 222
328 326 313 309 303 306 303 300 230 214 205 196 187 184 179 157 128 139 149 104 228 237 203 117 191 202 220 202 208 198 215 205 214 218 339 223 240 194 189 234 212 206 209 209 165 195 153
334 329 321 317 306 302 309 293 233 213 191 186 163 154 148 169 150 149 154 199 228 234 177 181 176 212 213 201 244 197 217 214 209 203 213 262 232 205 201 210 185 180 218 239 264 189 125
333 331 331 323 298 290 309 328 233 201 179 158 133 134 166 145 155 149 189 219 231 224 154 205 216 198 202 186 192 198 200 200 223 207 189 182 279 193 195 206 199 208 203 204 233 164 164
333 336 336 323 316 304 307 315 254 195 166 145 114 147 158 146 145 180 217 221 254 224 179 212 235 244 246 166 202 194 217 240 192 184 142 170 211 289 256 187 168 184 213 234 109 231 145
334 343 334 327 334 316 309 313 312 186 155 147 146 163 150 150 171 182 220 200 206 233 205 233 256 278 230 192 199 193 243 225 165 148 173 175 272 274 245 281 177 175 229 234 235 36 303
335 343 334 330 335 333 329 317 286 172 152 132 142 116 165 153 191 198 226 231 206 269 227 200 249 236 241 240 188 204 230 216 141 158 165 160 217 196 342 151 41 212 227 281 353 314 216
332 337 332 339 344 340 314 313 218 167 164 121 149 155 137 206 269 216 211 224 219 219 239 226 261 251 235 240 190 185 227 182 167 175 183 188 181 210 257 107 130 175 208 242 203 342 358
333 333 336 340 352 338 343 332 284 172 166 117 173 187 162 176 218 231 192 232 209 233 214 200 247 252 220 217 214 213 227 208 182 183 173 231 250 212 243 131 155 168 184 242 207 223 39
335 333 337 340 347 342 338 340 332 176 163 131 141 188 156 179 199 211 224 229 237 203 261 215 235 256 235 210 209 195 181 226 176 184 201 219 298 313 87 74 154 172 187 204 218 211 242
334 331 336 338 340 342 338 333 319 179 150 138 153 284 43 166 186 196 211 216 218 210 231 252 241 235 277 210 259 215 179 205 179 170 185 183 251 313 52 83 81 350 205 196 209 217 212
334 327 334 334 336 347 336 336 328 183 190 126 160 128 146 251 257 232 237 217 210 228 219 215 229 200 327 341 85 71 40 55 31 146 192 185 218 316 4 31 100 224 53 231 204 209 214
331 328 330 333 334 342 337 334 321 254 191 116 130 131 208 257 267 282 289 170 77 277 217 225 242 13 0 344 132 87 67 6 13 24 347 172 153 332 113 261 321 232 16 195 178 235 209
331 329 330 334 332 338 333 324 326 290 191 156 160 119 95 347 218 350 314 98 208 190 99 137 310 343 51 319 187 147 180 145 182 344 344 99 96 61 0 133 238 80 349 314 52 301 347
329 328 328 332 331 337 330 323 320 306 190 159 156 154 121 230 280 358 327 330 129 197 81 126 130 129 92 213 209 181 154 159 162 167 157 132 101 204 204 327 305 102 147 314 108 253 326
325 328 329 332 333 332 324 321 317 311 188 169 132 186 160 225 281 62 344 265 142 167 194 156 141 206 153 147 172 264 154 192 141 152 160 166 146 164 123 166 265 144 59 146 178 349 22
322 325 327 328 330 333 325 316 316 332 189 175 152 163 143 263 318 324 281 238 193 214 247 146 298 160 146 138 245 237 159 150 147 162 184 170 196 171 187 205 206 81 83 138 100 118 74